sat.trackr.live / text

‹ back to catalog

STARLINK-4266

NORAD 52869 · 2022-062AR

PAYLOAD ACTIVE UNKNOWN

§ Identity

Operator
Country
US
Launch date
2022-06-17
Launch site
AFETR
Launch vehicle
Mass (kg)
RCS (m²)

Purposes: comms

External: N2YO · Heavens-Above · Gunter

§ Orbital elements

Epoch: 2026-05-24T22:48:09.134208Z

Period
95.44 min
Inclination
53.2157°
Eccentricity
0.0001208
Mean motion
15.08839836 rev/d
Perigee alt
538.9 km
Apogee alt
540.6 km
Semi-major
6,917.9 km
B*
5.1055e-5
RAAN
31.7745°
Arg perigee
90.8552°
Mean anomaly
269.2578°
Rev number
21,757

§ Raw data

STARLINK-42661 52869U 22062AR  26144.95010572  .00000525  00000+0  51055-4 0  99992 52869  53.2157  31.7745 0001208  90.8552 269.2578 15.08839836217574

JSON: /api/v1/satellites/52869 · /tle

For live sub-satellite position, see the globe view (requires WebGL).

§ Visibility from observer

Set your observer location to see the next 7 days of passes ≥ 10°. The values pass through the URL so the page stays shareable.

No JS? Fill the form by hand. The geolocation button needs JavaScript.